Temperature
14 14 14 14 14 14 15 15 15 15 15 15 15 15 15 15 15 15 15 15 15 15 15 15 15 15 15 14 14 14 14 14 14 14 14 14 14 14 14 14 14 14 14
14 14 14 14 14 14 14 15 15 15 15 15 15 15 15 15 15 15 15 15 15 15 14 14 15 15 14 14 14 14 14 14 14 14 14 14 14 14 14 14 14 14 14
14 14 14 14 14 14 14 14 15 15 15 15 15 15 15 15 15 15 15 15 14 14 14 14 14 14 14 14 14 14 14 14 14 14 14 14 14 14 14 14 14 14 14
14 14 14 14 14 14 14 14 14 14 14 14 14 14 14 14 14 14 14 14 14 14 14 14 14 14 14 14 14 14 14 14 14 14 14 13 13 13 14 14 14 14 14
13 13 13 13 13 14 14 14 14 14 14 14 14 14 14 14 14 14 14 14 14 14 14 14 14 14 14 14 14 14 14 14 13 13 13 13 13 13 13 13 14 13 13
13 13 13 13 13 13 13 13 14 14 14 14 14 14 14 14 14 14 14 14 14 14 14 14 14 14 14 14 14 14 13 13 13 13 13 13 13 13 13 13 13 13 13
13 13 13 13 13 13 13 13 13 13 13 13 14 13 14 14 14 14 14 14 14 13 14 13 13 13 13 13 13 13 13 13 13 13 13 13 13 13 13 13 13 13 13
12 13 13 13 13 13 13 13 13 13 13 13 13 13 13 14 14 13 13 13 13 13 13 13 13 13 13 13 13 13 13 13 13 13 13 13 13 13 13 13 13 13 13
12 12 12 12 12 12 12 13 13 13 13 13 13 13 13 13 13 13 13 13 13 13 13 13 13 13 13 13 13 13 13 13 13 13 13 13 13 12 13 13 13 13 13
12 12 12 12 12 12 12 12 12 12 12 12 13 13 13 13 13 13 13 13 13 13 13 13 13 13 13 13 13 12 12 12 12 12 12 12 12 12 12 12 12 12 12
11 11 11 11 12 12 12 12 12 12 12 12 12 13 13 13 13 13 13 13 13 12 12 12 12 12 12 12 12 12 12 12 12 12 12 12 12 12 12 12 12 12 12
11 11 11 11 11 11 12 12 12 12 12 12 12 12 12 12 12 12 12 12 12 12 12 12 12 12 12 12 12 12 12 12 12 12 12 12 12 12 12 12 12 12 12
11 11 11 11 11 11 11 11 11 11 11 12 12 12 12 12 12 12 12 12 12 12 12 12 12 12 11 11 11 12 12 12 12 12 11 11 11 11 11 11 11 11 11
11 11 11 11 11 11 11 11 11 11 11 11 11 11 11 11 12 11 11 12 11 11 11 11 12 11 11 11 11 11 11 11 11 11 11 11 11 11 11 11 11 11 11
10 10 10 10 10 10 10 10 11 11 11 11 11 11 11 11 11 11 11 11 11 11 11 11 11 11 11 11 11 11 11 11 11 11 11 11 11 11 11 11 10 10 10
10 10 10 10 10 10 10 10 10 10 10 10 10 10 10 10 11 11 11 11 11 11 11 11 11 11 11 10 10 10 10 10 10 10 10 10 10 10 10 10 10 10 10
10 10 10 10 10 10 10 10 10 10 10 10 10 10 10 10 10 10 10 10 10 10 10 10 10 10 10 10 10 10 10 10 10 10 10 10 10 10 10 10 10 10 9
9 9 9 9 9 9 9 10 9 9 9 9 9 9 9 9 9 10 10 10 10 10 10 10 10 10 10 10 10 10 10 10 10 10 10 10 10 10 10 10 9 9 9
9 9 9 9 9 9 9 9 9 9 9 9 9 9 9 9 9 9 9 9 9 9 9 9 9 9 9 9 10 9 9 9 9 9 9 9 9 9 9 9 9 9 9
9 9 9 9 9 9 9 9 9 9 9 8 8 8 8 9 9 9 9 9 9 9 9 9 9 9 9 9 9 9 9 9 9 9 9 9 9 9 9 9 9 9 9
9 9 9 9 9 9 8 8 8 8 8 8 8 8 8 8 8 8 8 8 8 9 8 8 8 8 8 8 8 8 8 8 8 8 8 9 9 9 9 9 9 9 8
8 8 8 8 8 8 8 8 8 8 8 8 8 8 8 8 8 8 8 8 8 8 8 8 8 8 8 8 8 8 7 7 8 8 8 8 8 8 8 8 8 8 8
8 8 8 8 8 8 8 8 7 7 7 7 7 8 7 7 7 7 7 7 8 8 7 7 8 8 8 7 7 7 7 7 7 7 7 7 7 7 8 8 8 8 8
8 8 8 8 8 8 7 7 7 7 7 7 7 7 7 7 7 7 7 7 7 7 7 7 7 7 7 7 7 7 7 7 7 6 7 7 7 7 7 7 7 7 7
7 7 7 7 7 7 7 7 7 7 7 7 7 7 7 7 7 7 7 7 7 7 7 7 7 7 7 7 7 7 7 7 7 6 6 7 7 7 7 7 7 7 7
7 7 7 7 7 7 7 7 7 6 7 6 6 6 6 6 6 6 6 6 6 6 7 7 7 7 6 6 6 6 6 6 6 6 6 6 6 7 6 6 6 6 6
Wind_Speed
3 4 3 1 2 3 5 5 6 7 8 9 9 9 10 10 9 9 10 10 10 10 10 10 11 11 11 12 12 11 11 12 12 12 12 12 12 12 12 12 12 12 13
3 4 3 2 2 4 5 5 5 6 7 8 9 9 9 9 8 9 9 9 9 9 10 10 10 10 11 11 11 11 11 11 11 11 11 11 11 11 12 11 11 10 12
2 2 2 3 4 5 5 5 5 5 6 7 8 9 8 8 8 8 8 8 8 9 9 9 10 11 11 11 11 10 10 10 10 10 10 9 9 11 11 11 11 11 11
2 1 1 2 4 5 5 5 5 5 6 7 7 8 7 7 7 7 7 8 8 8 8 9 10 10 11 10 10 10 10 9 9 9 8 7 7 9 10 11 11 11 11
2 2 1 1 3 4 5 4 4 5 6 6 6 7 7 7 6 6 7 7 8 8 8 9 9 10 10 9 9 10 10 10 9 9 8 7 6 9 10 11 10 11 11
3 3 2 1 2 3 4 4 4 4 5 5 5 5 6 6 6 6 7 7 7 7 8 8 9 10 9 9 9 10 11 11 10 9 8 7 6 8 10 10 10 10 10
3 4 2 2 1 2 3 3 4 4 4 5 5 5 5 6 6 6 7 7 7 7 7 8 8 9 9 9 10 10 10 10 10 9 7 6 6 8 10 10 10 10 10
2 3 2 1 1 1 2 3 3 4 4 4 5 4 5 6 6 6 7 7 7 7 7 8 8 9 9 9 9 9 9 9 8 7 6 5 5 8 9 9 10 10 10
3 3 3 1 0 0 1 3 4 4 3 4 5 5 4 5 7 6 6 7 7 7 8 8 8 8 8 8 9 9 9 8 8 6 5 4 6 7 9 9 10 11 11
3 3 3 2 1 0 0 2 3 3 3 4 5 5 4 5 6 6 6 6 7 8 8 8 8 8 8 8 9 9 8 8 7 6 5 4 6 7 8 8 9 10 10
3 4 4 3 2 1 1 2 2 3 3 3 5 5 5 4 5 5 5 7 7 8 7 8 8 8 8 8 8 8 8 6 6 5 4 5 5 6 7 8 9 9 9
4 4 3 3 2 1 0 1 1 2 3 3 4 4 5 5 5 5 5 6 7 7 7 7 7 7 7 7 6 7 6 6 5 4 4 4 5 6 7 8 8 8 8
3 3 3 2 2 2 1 1 2 1 3 3 4 4 4 5 5 5 5 5 6 6 6 6 7 7 7 6 6 6 6 6 4 4 3 4 4 5 6 7 8 8 8
3 4 3 2 1 1 1 1 2 2 2 2 3 4 4 3 3 4 4 4 5 5 6 6 6 7 7 6 6 5 5 5 4 3 3 4 4 5 6 7 7 8 8
4 4 4 2 1 1 1 0 1 1 1 1 2 3 4 2 2 3 3 4 5 6 5 5 5 5 5 5 5 6 5 5 4 4 4 4 4 4 5 6 7 8 8
5 5 4 2 1 0 1 0 1 1 1 1 2 1 3 3 2 3 3 3 4 5 6 5 5 5 4 4 4 5 5 4 4 5 4 4 4 4 5 5 6 7 7
5 4 3 2 1 0 1 1 1 1 2 1 1 2 2 3 3 4 3 3 4 6 7 6 5 5 4 4 3 4 4 4 4 4 4 5 4 4 4 5 5 6 5
4 4 3 2 1 1 1 1 2 2 1 1 1 2 2 3 3 3 3 3 4 6 5 4 3 3 3 3 2 2 3 3 4 4 4 4 4 4 5 5 4 5 5
4 3 3 2 2 1 1 1 2 2 2 1 1 1 2 3 4 3 3 3 6 5 4 4 2 3 3 3 2 2 2 2 2 3 4 4 4 5 5 5 4 4 3
3 2 2 2 2 1 1 1 1 2 1 2 1 1 1 3 4 4 3 3 5 4 3 3 3 3 3 3 3 2 2 1 2 2 1 3 3 4 5 4 4 3 3
3 2 2 2 2 2 1 1 1 1 1 1 1 1 1 2 4 4 3 3 3 3 3 4 3 4 2 2 2 2 2 2 1 0 1 2 2 2 3 3 3 3 2
2 2 2 2 2 3 2 2 1 1 0 1 1 1 1 2 3 4 3 2 2 3 4 3 4 2 1 1 2 2 1 2 2 1 1 0 1 2 2 2 2 2 2
2 2 2 2 2 3 2 2 2 2 2 1 1 1 1 2 3 4 4 3 3 3 3 3 4 3 2 0 1 2 2 2 1 1 1 0 0 0 0 1 1 1 1
3 2 1 1 2 2 3 4 4 2 1 1 1 1 1 1 2 4 4 4 3 3 3 3 2 2 3 2 0 0 1 2 2 1 2 1 1 1 1 1 1 2 2
2 1 1 0 1 2 2 4 4 2 1 1 1 1 1 1 2 3 3 3 3 2 3 3 2 3 3 3 2 1 1 1 1 2 2 2 2 2 2 2 2 2 3
2 1 1 1 1 2 2 2 3 3 3 3 2 2 1 1 1 2 3 3 3 3 3 3 3 3 3 2 2 2 2 2 2 2 2 2 3 2 2 2 3 3 4
Wind_Direction
292 295 267 140 106 111 109 106 111 120 120 121 118 116 114 116 118 117 114 113 113 111 109 106 106 103 98 96 95 92 90 89 89 87 85 86 87 89 87 84 82 82 84
272 275 240 170 135 126 119 111 114 120 123 125 123 120 119 120 122 122 118 116 117 116 113 111 111 106 102 98 96 94 91 90 89 86 83 84 87 92 91 89 88 91 88
320 288 224 175 139 129 125 120 117 125 125 128 124 121 121 122 123 125 124 123 121 118 117 114 112 108 104 99 96 95 94 92 91 87 83 82 90 94 93 92 90 91 90
336 322 264 172 144 132 127 128 120 127 125 123 126 127 125 124 121 121 124 128 123 117 114 113 111 108 105 102 99 97 98 94 91 89 83 82 91 98 95 94 92 92 92
4 359 346 147 155 146 135 130 134 126 131 126 129 133 131 129 125 121 118 120 120 117 114 113 112 108 106 105 104 100 98 95 91 89 85 82 91 101 99 95 92 91 91
8 9 8 50 150 155 147 140 137 132 138 140 135 140 142 138 134 131 121 119 123 122 120 117 114 112 107 107 108 103 99 94 89 88 84 87 94 103 101 96 93 89 90
7 6 12 25 83 140 152 151 147 136 131 146 147 146 153 146 142 140 131 125 128 132 130 125 120 115 110 110 109 104 99 94 91 87 81 85 98 105 103 99 93 93 91
9 359 359 6 36 127 165 169 165 149 140 146 155 156 158 153 147 145 140 136 133 133 133 129 124 116 112 113 111 106 101 97 94 90 86 89 102 109 108 103 98 96 90
2 0 348 328 339 101 181 177 171 154 153 159 156 158 154 154 154 144 139 140 136 133 131 128 124 119 118 118 115 109 103 98 97 95 96 101 110 112 111 106 100 97 93
356 354 350 345 344 342 203 153 157 151 152 159 150 140 135 138 144 143 137 140 140 137 135 131 125 122 121 119 115 108 105 99 96 97 100 110 111 113 113 110 103 97 95
341 342 349 348 350 341 143 143 146 148 151 150 136 123 111 107 112 121 131 140 145 144 138 131 125 118 113 112 111 107 103 101 98 99 107 115 115 115 114 112 110 104 100
314 322 331 336 341 1 14 110 94 122 132 131 124 124 118 110 107 109 111 121 129 132 131 125 119 112 102 95 99 99 98 97 93 96 109 119 122 121 116 118 116 112 106
287 305 313 320 342 12 25 74 74 96 125 126 125 124 119 108 108 106 100 100 104 109 104 104 96 94 96 97 95 93 98 95 90 88 97 113 123 126 122 120 121 119 114
289 292 299 318 342 9 28 62 89 93 99 94 114 121 115 104 106 105 96 105 105 108 102 98 97 97 96 100 101 97 97 98 91 87 87 106 121 125 129 129 128 125 119
285 285 287 299 320 4 44 30 92 105 101 115 121 131 130 119 135 121 110 109 114 117 112 106 101 101 98 95 95 97 95 95 95 92 85 95 120 130 135 132 132 128 123
275 278 280 282 284 34 101 130 95 90 93 114 114 137 146 139 146 141 130 122 119 124 122 115 115 111 105 102 91 90 88 89 91 91 86 83 94 121 144 140 136 134 127
270 275 273 265 303 55 153 124 79 66 75 74 97 127 133 134 149 142 138 134 127 125 116 105 100 105 105 96 90 85 83 82 89 89 87 81 79 85 122 139 136 134 134
274 273 271 269 253 206 160 117 96 76 70 61 104 121 122 119 126 127 135 139 132 124 116 115 107 108 105 101 91 75 73 77 76 83 87 88 86 85 92 114 130 137 139
269 262 259 251 233 206 163 108 100 103 87 65 71 104 125 125 124 122 127 137 134 124 123 131 116 117 121 108 94 68 54 58 68 77 81 89 96 98 95 97 105 115 136
282 271 260 236 223 179 129 103 84 90 96 89 72 58 133 138 132 123 116 124 132 127 124 122 122 99 120 120 93 62 39 38 67 79 97 96 99 99 103 101 96 99 118
313 304 280 238 203 159 154 151 147 170 156 135 89 87 98 129 128 123 123 121 125 130 138 131 123 106 93 105 87 58 22 21 54 58 80 95 89 93 104 105 103 103 102
303 295 274 235 197 181 179 179 150 132 125 136 66 78 125 125 120 128 128 139 133 127 127 125 123 118 97 108 125 121 45 352 356 8 39 118 97 84 90 107 113 115 113
306 291 276 241 200 185 159 129 102 80 64 56 78 103 81 122 123 121 127 134 135 136 155 150 143 141 153 134 136 150 159 208 281 330 348 37 82 63 55 128 146 165 158
287 293 291 229 181 174 162 155 151 149 161 226 211 185 138 123 126 119 124 131 141 143 159 168 150 144 153 164 102 46 145 160 173 257 311 327 316 266 260 256 218 225 211
290 294 282 175 167 160 159 164 161 151 149 142 139 137 135 126 132 129 130 134 150 161 168 167 154 154 161 167 173 166 121 68 160 187 243 281 312 280 266 254 227 222 230
308 312 298 179 176 161 157 155 163 162 153 146 150 162 162 157 151 138 151 157 167 174 175 174 169 169 170 164 167 176 176 183 192 186 220 248 264 272 273 253 236 224 233
Height
1520 1520 1521 1521 1522 1523 1523 1524 1524 1525 1526 1526 1527 1527 1528 1529 1529 1530 1531 1531 1532 1533 1533 1534 1534 1535 1536 1537 1537 1538 1539 1539 1540 1540 1541 1542 1542 1543 1544 1544 1545 1545 1545
1519 1520 1520 1521 1522 1522 1523 1523 1524 1525 1525 1526 1527 1527 1528 1529 1529 1530 1531 1531 1532 1533 1533 1534 1535 1536 1536 1537 1538 1539 1539 1540 1541 1541 1542 1543 1543 1544 1545 1545 1546 1546 1546
1519 1519 1520 1520 1521 1522 1522 1523 1523 1524 1525 1526 1526 1527 1528 1528 1529 1530 1531 1531 1532 1533 1534 1535 1535 1536 1537 1538 1538 1539 1540 1541 1541 1542 1543 1543 1544 1545 1545 1546 1547 1547 1547
1519 1519 1519 1520 1520 1521 1521 1522 1523 1523 1524 1525 1526 1526 1527 1528 1529 1530 1530 1531 1532 1533 1534 1535 1536 1536 1537 1538 1539 1540 1540 1541 1542 1543 1544 1544 1545 1546 1546 1547 1547 1548 1548
1519 1519 1519 1519 1520 1520 1521 1521 1522 1523 1523 1524 1525 1526 1527 1527 1528 1529 1530 1531 1532 1533 1534 1535 1536 1537 1537 1538 1539 1540 1541 1542 1543 1544 1544 1545 1546 1547 1547 1547 1548 1548 1548
1518 1518 1518 1518 1519 1519 1520 1520 1521 1521 1522 1523 1524 1525 1526 1527 1528 1528 1530 1531 1532 1533 1534 1535 1536 1537 1538 1539 1540 1540 1541 1542 1543 1544 1545 1546 1546 1547 1548 1548 1548 1549 1549
1517 1517 1517 1517 1518 1518 1518 1519 1520 1520 1521 1522 1523 1524 1525 1526 1527 1528 1529 1530 1531 1533 1534 1535 1536 1537 1538 1539 1540 1541 1541 1542 1543 1544 1545 1546 1547 1548 1548 1548 1549 1549 1549
1517 1517 1516 1516 1516 1516 1517 1517 1518 1519 1520 1520 1522 1522 1524 1525 1526 1527 1528 1529 1531 1532 1533 1534 1535 1537 1538 1539 1540 1541 1542 1543 1544 1545 1545 1546 1547 1547 1548 1548 1549 1549 1550
1516 1515 1515 1515 1515 1515 1515 1516 1517 1517 1518 1519 1520 1521 1522 1523 1524 1525 1527 1528 1530 1531 1532 1533 1535 1536 1537 1538 1539 1540 1541 1543 1544 1545 1545 1546 1547 1547 1548 1549 1549 1550 1550
1514 1514 1513 1513 1513 1513 1513 1514 1514 1515 1516 1517 1518 1519 1520 1521 1523 1524 1526 1527 1528 1530 1531 1533 1534 1535 1537 1538 1539 1540 1541 1542 1544 1545 1545 1546 1547 1547 1548 1548 1549 1550 1550
1512 1512 1511 1511 1511 1511 1511 1512 1512 1513 1514 1515 1516 1517 1518 1519 1521 1522 1524 1526 1527 1529 1530 1532 1533 1534 1536 1537 1538 1540 1541 1542 1543 1544 1545 1546 1546 1547 1547 1548 1549 1549 1550
1510 1510 1510 1509 1509 1509 1509 1509 1510 1511 1511 1513 1514 1515 1516 1517 1519 1520 1522 1524 1525 1527 1529 1530 1532 1533 1534 1536 1537 1539 1540 1541 1542 1543 1544 1545 1546 1546 1547 1548 1548 1549 1549
1508 1508 1507 1507 1507 1507 1507 1507 1508 1509 1509 1510 1511 1512 1514 1515 1517 1518 1520 1522 1524 1525 1527 1529 1530 1532 1533 1535 1536 1538 1539 1540 1541 1542 1543 1544 1545 1546 1546 1547 1547 1548 1548
1507 1506 1506 1505 1505 1504 1505 1505 1505 1506 1506 1508 1509 1510 1511 1513 1514 1516 1518 1520 1522 1524 1525 1527 1529 1530 1532 1534 1535 1537 1538 1539 1540 1541 1542 1543 1544 1545 1545 1546 1547 1547 1548
1505 1504 1504 1503 1503 1502 1502 1502 1503 1504 1505 1506 1507 1508 1509 1510 1512 1514 1516 1518 1520 1521 1523 1525 1527 1528 1530 1532 1534 1535 1537 1538 1539 1540 1541 1542 1543 1544 1545 1545 1546 1547 1547
1502 1502 1501 1501 1500 1500 1500 1500 1500 1502 1503 1504 1505 1506 1507 1508 1510 1511 1513 1516 1518 1520 1522 1524 1525 1527 1529 1531 1532 1534 1535 1537 1538 1539 1540 1541 1542 1543 1543 1544 1545 1545 1546
1500 1499 1498 1498 1498 1497 1497 1498 1498 1500 1501 1502 1503 1504 1505 1506 1508 1509 1511 1513 1516 1518 1520 1522 1524 1526 1527 1529 1531 1532 1534 1535 1536 1537 1538 1539 1540 1541 1542 1543 1544 1544 1544
1497 1496 1496 1496 1495 1495 1495 1495 1496 1498 1498 1500 1501 1502 1503 1504 1506 1507 1509 1511 1514 1516 1518 1520 1522 1524 1525 1527 1529 1530 1532 1533 1534 1536 1537 1538 1539 1540 1540 1541 1542 1543 1543
1494 1493 1493 1493 1492 1493 1493 1494 1495 1495 1497 1498 1499 1500 1501 1502 1504 1506 1507 1509 1512 1514 1516 1518 1520 1522 1523 1525 1526 1528 1530 1531 1532 1533 1535 1536 1537 1538 1539 1539 1540 1541 1541
1491 1491 1490 1490 1490 1490 1491 1492 1492 1493 1494 1495 1497 1498 1499 1500 1502 1504 1506 1507 1509 1512 1514 1516 1518 1520 1521 1523 1524 1526 1527 1529 1530 1531 1532 1533 1534 1535 1536 1537 1538 1538 1539
1489 1488 1487 1487 1487 1488 1488 1489 1489 1490 1491 1492 1494 1496 1497 1498 1499 1501 1503 1505 1507 1509 1511 1513 1515 1517 1519 1521 1522 1523 1525 1526 1527 1528 1529 1531 1532 1533 1534 1534 1535 1536 1536
1486 1485 1485 1484 1485 1485 1485 1486 1487 1488 1489 1490 1491 1492 1494 1496 1497 1499 1501 1503 1505 1507 1509 1511 1513 1514 1516 1518 1520 1521 1522 1524 1524 1525 1526 1528 1529 1530 1531 1532 1532 1533 1534
1484 1483 1482 1482 1482 1483 1483 1484 1485 1486 1487 1487 1488 1489 1491 1493 1495 1496 1499 1501 1503 1505 1507 1508 1511 1512 1514 1516 1518 1519 1520 1520 1521 1522 1523 1525 1526 1527 1528 1529 1529 1530 1531
1482 1482 1481 1481 1481 1481 1481 1482 1482 1483 1484 1485 1486 1487 1488 1490 1492 1494 1496 1499 1501 1503 1505 1507 1509 1510 1512 1513 1515 1516 1518 1518 1519 1519 1520 1521 1523 1524 1524 1525 1526 1527 1527
1481 1480 1480 1480 1479 1479 1480 1480 1480 1481 1482 1483 1484 1485 1486 1488 1490 1491 1494 1496 1498 1501 1503 1504 1506 1508 1510 1511 1512 1513 1514 1515 1516 1516 1516 1517 1518 1520 1521 1521 1522 1523 1523
1479 1479 1479 1478 1478 1478 1478 1478 1478 1479 1480 1481 1481 1482 1483 1485 1487 1489 1491 1494 1496 1498 1500 1501 1503 1505 1507 1509 1510 1511 1511 1512 1513 1513 1513 1513 1514 1515 1516 1517 1518 1519 1519